Location: Chochol
(49.7771°N, 14.9780°E)
Time: 05:01:19
(UTC+00:00)

BREEZE M DEB (TANK) - Pass Details

Date: 09 April 2020
Orbit: 313 x 13666 km, 49.6° (Epoch: 27 May)

Event Time Altitude Azimuth Distance (km) Brightness Sun altitude
Rises 20:43:40 0° 262° (W) 4,680 7.9 -24.9°
Reaches altitude 10° 20:48:01 10° 262° (W) 2,585 6.6 -25.3°
Enters shadow 20:51:26 34° 261° (W) 912 4.1 -25.7°
